Вернуться в каталог

STARLINK-30764

АктивенСвязьVLEO
NORAD 58170·PAYLOAD·🇺🇸 United States

Запущен Oct 29, 2023 с Vandenberg Space Force Base

Loading…

Ближайшие Пролёты (ближайшие 24 часа)

TLE

СвежийSource: CelesTrak SupGP

Эпоха: Sep 14, 2026, 21:58 UTC

1 58170C 23166W   26257.91576389  .00042406  00000+0  12533-2 0  2577
2 58170  53.1605  59.6876 0001022  81.1369 317.0988 15.34360530    14

Отслеживайте STARLINK-30764 в реальном времени с AllMySat

Download on the App Store